Regional Weather Roundup
Issued by NWS

Home | Current Version | Previous Version | Text Only | Print | Product List | Glossary Off
Versions: 1 2 3 4 5 6 7 8 9 10 11 12 13 14 15 16 17 18 19 20 21 22 23 24 25 26 27 28 29 30 31 32 33 34 35 36 37 38 39 40 41 42 43 44 45 46 47 48 49 50

084
ASUS45 KCYS 201410
RWRWY

WYOMING REGIONAL WEATHER ROUNDUP
NATIONAL WEATHER SERVICE CHEYENNE WY
800 AM MDT SUN MAY 20 2018

NOTE:  "FAIR" INDICATES FEW OR NO CLOUDS BELOW 12,000 FEET
WITH NO SIGNIFICANT WEATHER AND/OR OBSTRUCTIONS TO VISIBILITY.

WYZ001-201500-
YELLOWSTONE NATIONAL PARK

CITY           SKY/WX    TMP DP  RH WIND       PRES   REMARKS
LK YELLOWSTONE   N/A     39  33  79 CALM      30.20R
W YELLOWSTONE  NOT AVBL

$$
WYZ002>013-054>058-071-098>099-201500-
NORTHERN WYOMING

CITY           SKY/WX    TMP DP  RH WIND       PRES   REMARKS
JACKSON        FAIR      46  39  76 CALM      30.16R
CODY           NOT AVBL
GREYBULL       FAIR      49  42  77 E5        30.12S
WORLAND        FAIR      52  44  74 S8        30.12S
SHERIDAN       FAIR      48  42  80 CALM      30.12S
BUFFALO        FAIR      46  42  86 S18       30.15S
GILLETTE       FAIR      47  37  68 S22G29    30.18S
NEWCASTLE      FAIR      45  34  65 SE12G21   30.26R

$$
WYZ014>020-022>026-101>103-201500-
CENTRAL WYOMING

CITY           SKY/WX    TMP DP  RH WIND       PRES   REMARKS
BIG PINEY      FAIR      44  38  79 CALM      30.18S
PINEDALE       FAIR      43  37  81 NW7       30.19S
DUBOIS         CLOUDY    43  36  75 CALM      30.17S
LANDER         CLOUDY    46  41  82 SE5       30.15S
RIVERTON       CLOUDY    45  41  86 E5        30.17R
CASPER         FOG       38  38 100 E5        30.20R VSB 1/4 WCI  34
DOUGLAS        FAIR      44  40  85 SE18      30.23R

$$
WYZ021-027>030-104>119-201500-
SOUTHERN WYOMING

CITY           SKY/WX    TMP DP  RH WIND       PRES   REMARKS
EVANSTON       FAIR      44  39  82 NE8       30.14R
KEMMERER       FAIR      45  37  76 NE14      30.18R
FORT BRIDGER   CLOUDY    41  41 100 NE5       30.19R
ROCK SPRINGS   CLOUDY    40  37  89 NE8       30.18R WCI  34
DIXON          FAIR      42  35  76 CALM      30.18S
RAWLINS        CLOUDY    39  36  89 NE9       30.20R WCI  33
SARATOGA       FOG       34  34 100 NE5       30.20S VSB 1/4 WCI  30
LARAMIE        FAIR      40  34  79 SE28G35   30.20S WCI  29
CHEYENNE       CLOUDY    38  38 100 S10       30.27R WCI  31
TORRINGTON     CLOUDY    45  43  93 S3        30.27R
PINE BLUFFS    CLOUDY    43  37  81 SE5       30.29S

$$




USA.gov is the U.S. government's official web portal to all federal, state and local government web resources and services.